Weather History for Jordan, MT

Change the Weather History Date:

Friday, February 22, 2013

  Actual Average Record
Temperature  
Mean Temperature 29 °F 25 °F  
Max Temperature 46 °F 37 °F 68 °F (2002)
Min Temperature 12 °F 12 °F -38 °F (1910)
Degree Days  
Heating Degree Days 36 40  
Month to date heating degree days 775 954  
Since 1 July heating degree days 5266 5884  
Cooling Degree Days 0 0  
Month to date cooling degree days 0 0  
Year to date cooling degree days 0 0  
Moisture  
Dew Point 16 °F    
Average Humidity 60    
Maximum Humidity 92    
Minimum Humidity 28    
Precipitation  
Precipitation 0.00 in 0.02 in 0.24 in (1982)
Month to date precipitation 0.07 0.18  
Year to date precipitation 0.40 0.41  
Snow  
Snow 0.00 in - - ()
Month to date snowfall 0.0  
Since 1 July snowfall 0.0  
Snow Depth 0.00 in    
Sea Level Pressure  
Sea Level Pressure 29.84 in    
Wind  
Wind Speed 6 mph (WSW)    
Max Wind Speed 16 mph    
Max Gust Speed 21 mph    
T = Trace of Precipitation, MM = Missing Value Source: NWS Daily Summary

Daily Weather History Graph

Daily Weather History Graph

Search for Another Location

Airport:

Trip Planner

Search our weather history database for the weather conditions in past years. The results will help you decide how hot, cold, wet, or windy it might be!

Date:

Astronomy

Feb. 22, 2013 Rise Set
Actual Time 7:00 AM MST 5:42 PM MST
Civil Twilight 6:29 AM MST 6:13 PM MST
Nautical Twilight 5:53 AM MST 6:49 PM MST
Astronomical Twilight 5:18 AM MST 7:25 PM MST
Moon 2:49 PM MST (2/22) 4:55 AM MST (2/22)
Length of Visible Light 11h 44m
Length of Day
10h 42m
Waxing Gibbous, 90% of the Moon is Illuminated
Feb 22
Waxing Gibbous
Feb 25
Full
Mar 4
Last Quarter
Mar 11
New
Mar 19
First Quarter

Hourly Weather History & Observations

Time (MST) Temp. Windchill Dew Point Humidity Pressure Visibility Wind Dir Wind Speed Gust Speed Precip Events Conditions
12:48 AM 19.9 °F - 17.1 °F 89% 29.97 in - Calm Calm - N/A   Unknown
1:48 AM 16.0 °F - 12.9 °F 88% 29.97 in - Calm Calm - N/A   Unknown
2:48 AM 16.0 °F - 12.0 °F 84% 29.96 in - Calm Calm - N/A   Unknown
3:48 AM 18.0 °F - 15.1 °F 88% 29.94 in - Calm Calm - N/A   Unknown
4:48 AM 16.0 °F 10.4 °F 12.9 °F 88% 29.94 in - West 3.5 mph - N/A   Unknown
5:48 AM 14.0 °F - 10.9 °F 88% 29.96 in - Calm Calm - N/A   Unknown
6:48 AM 14.0 °F 6.5 °F 10.4 °F 86% 29.84 in - WNW 4.6 mph - N/A   Unknown
7:48 AM 19.0 °F 13.9 °F 15.1 °F 85% 29.97 in - West 3.5 mph - N/A   Unknown
8:48 AM 25.0 °F 17.1 °F 19.9 °F 81% 29.96 in - WNW 6.9 mph - N/A   Unknown
9:48 AM 34.0 °F 25.0 °F 21.9 °F 61% 29.94 in - West 12.7 mph - N/A   Unknown
10:48 AM 37.9 °F 30.5 °F 21.0 °F 51% 29.91 in - West 11.5 mph - N/A   Unknown
11:48 AM 42.1 °F 35.7 °F 21.0 °F 43% 29.89 in - West 11.5 mph - N/A   Unknown
12:48 PM 43.0 °F 36.4 °F 18.0 °F 37% 29.85 in - West 12.7 mph - N/A   Unknown
1:48 PM 44.1 °F 38.6 °F 14.0 °F 30% 29.83 in - West 10.4 mph - N/A   Unknown
2:48 PM 45.0 °F 39.3 °F 16.0 °F 31% 29.80 in - SSW 11.5 mph - N/A   Unknown
3:48 PM 45.0 °F 40.1 °F 14.0 °F 29% 29.78 in - SW 9.2 mph - N/A   Unknown
4:48 PM 43.0 °F 39.5 °F 14.0 °F 31% 29.77 in - SW 5.8 mph - N/A   Unknown
5:48 PM 34.0 °F - 17.1 °F 50% 29.78 in - Calm Calm - N/A   Unknown
6:48 PM 28.9 °F - 18.0 °F 64% 29.77 in - Calm Calm - N/A   Unknown
7:48 PM 33.1 °F - 19.0 °F 56% 29.74 in - Calm Calm - N/A   Unknown
8:48 PM 30.0 °F - 19.9 °F 66% 29.72 in - Calm Calm - N/A   Unknown
9:48 PM 32.0 °F 23.0 °F 19.0 °F 59% 29.68 in - SSW 11.5 mph - N/A   Unknown
10:48 PM 32.0 °F 23.6 °F 18.0 °F 56% 29.65 in - SSW 10.4 mph - N/A   Unknown
11:48 PM 32.0 °F 23.6 °F 18.0 °F 56% 29.62 in - SSW 10.4 mph - N/A   Unknown